DW9005 Weather Reports


time (UTC)temp
F
wind
direction
speed
knots
gust
knots
rain 1hr
in
rain 24hr
in
rain mn
in
humidity
%
barometer
mb
20260901131527 75 0.0 0.0 0.00 0.00 0.00 95 1019.9
20260901130006 73 0.0 0.0 0.00 0.00 0.00 95 1019.8
20260901124506 72 0.0 0.0 0.00 0.00 0.00 95 1019.8
20260901123047 72 0.0 0.0 0.00 0.00 0.00 95 1019.7
20260901121548 71 0.0 0.0 0.00 0.00 0.00 95 1019.6
20260901120028 71 0.0 0.0 0.00 0.00 0.00 95 1019.5
20260901114527 71 0.0 0.0 0.00 0.00 0.00 95 1019.2
20260901113006 71 0.0 0.0 0.00 0.00 0.00 95 1018.9
20260901111506 71 0.0 0.0 0.00 0.00 0.00 95 1018.9
20260901110049 71 0.0 0.0 0.00 0.00 0.00 95 1018.6
20260901104544 71 0.0 0.0 0.00 0.00 0.00 95 1018.6
20260901103028 71 0.0 0.0 0.00 0.00 0.00 95 1018.5
20260901101525 71 0.0 0.0 0.00 0.00 0.00 95 1018.5
20260901100013 71 0.0 0.0 0.00 0.00 0.00 95 1018.5
20260901094513 71 0.0 0.0 0.00 0.00 0.00 95 1018.5
20260901093010 72 0.0 0.0 0.00 0.00 0.00 95 1018.4
20260901091508 72 0.0 0.0 0.00 0.00 0.00 95 1018.2
20260901090007 72 0.0 0.0 0.00 0.00 0.00 95 1018.1
20260901084505 72 0.0 0.0 0.00 0.00 0.00 95 1018.0
20260901083006 72 0.0 0.0 0.00 0.00 0.00 95 1018.0
20260901081502 72 0.0 0.0 0.00 0.00 0.00 95 1017.8
20260901080049 72 0.0 0.0 0.00 0.00 0.00 95 1017.8
20260901074552 73 0.0 0.0 0.00 0.00 0.00 95 1017.7
20260901073024 73 0.0 0.0 0.00 0.00 0.00 95 1017.7
20260901071524 73 0.0 0.0 0.00 0.00 0.00 95 1017.8
20260901070003 73 0.0 0.0 0.00 0.00 0.00 95 1017.8
20260901064502 73 0.0 0.0 0.00 0.00 0.00 95 1017.7
20260901063046 74 0.0 0.0 0.00 0.00 0.00 94 1017.8
20260901061545 74 0.0 0.0 0.00 0.00 0.00 95 1017.8
20260901060027 74 0.0 0.0 0.00 0.00 0.00 94 1017.9
20260901054533 74 0.0 0.0 0.00 0.00 0.00 94 1017.9
20260901053011 75 0.0 0.0 0.00 0.00 0.00 94 1018.0
20260901051508 75 0.0 0.0 0.00 0.00 0.00 94 1018.1
20260901050050 75 0.0 0.0 0.00 0.00 0.00 94 1018.0
20260901044551 75 0.0 0.0 0.00 0.00 0.00 94 1018.2
20260901043032 76 0.0 0.0 0.00 0.00 0.00 94 1018.1
20260901041534 76 0.0 0.0 0.00 0.00 0.00 94 1018.1
20260901040013 76 0.0 0.0 0.00 0.00 0.00 93 1018.2
20260901034520 76 0.0 0.0 0.00 0.00 0.00 93 1018.1
20260901033006 77 0.0 0.0 0.00 0.00 0.00 92 1018.1
20260901031500 77 0.0 0.0 0.00 0.00 0.00 92 1018.2
20260901030101 78 0.0 0.0 0.00 0.00 0.00 92 1018.1
20260901024600 78 0.0 0.0 0.00 0.00 0.00 91 1018.1
20260901023101 78 0.0 0.0 0.00 0.00 0.00 90 1018.1
20260901021601 79 0.0 0.0 0.00 0.00 0.00 89 1017.9
20260901020101 79 0.0 0.0 0.00 0.00 0.00 89 1017.8
20260901014558 80 0.0 0.0 0.00 0.00 0.00 87 1017.5
20260901013109 80 0.0 0.0 0.00 0.00 0.00 86 1017.5
20260901011557 81 0.0 0.0 0.00 0.00 0.00 85 1017.4
20260901010037 81 0.0 0.0 0.00 0.00 0.00 83 1017.2
20260901004536 82 0.0 0.0 0.00 0.00 0.00 81 1016.9
20260901003019 84 0.0 0.0 0.00 0.00 0.00 78 1016.8
20260901001518 85 0.0 0.0 0.00 0.00 0.00 75 1016.9
20260831234601 88 0.0 0.0 0.00 0.00 0.00 68 1016.9
20260831233041 90 0.0 0.0 0.00 0.00 0.00 64 1017.0
20260831231541 92 0.0 0.0 0.00 0.00 0.00 61 1016.9
20260831230023 91 0.0 0.0 0.00 0.00 0.00 60 1017.0
20260831224525 92 0.0 0.0 0.00 0.00 0.00 61 1017.1
20260831223005 91 0.0 0.0 0.00 0.00 0.00 63 1017.0
20260831221504 91 0.0 0.0 0.00 0.00 0.00 62 1017.1
20260831220046 92 0.0 0.0 0.00 0.00 0.00 59 1017.1
20260831214545 92 0.0 0.0 0.00 0.00 0.00 60 1017.3
20260831213027 92 0.0 0.0 0.00 0.00 0.00 60 1017.4
20260831211524 92 0.0 0.0 0.00 0.00 0.00 60 1017.6
20260831210004 92 0.0 0.0 0.00 0.00 0.00 62 1017.7
20260831204503 92 0.0 0.0 0.00 0.00 0.00 61 1017.7
20260831203110 92 0.0 0.0 0.00 0.00 0.00 63 1017.7
20260831201601 92 0.0 0.0 0.00 0.00 0.00 58 1017.8
20260831200134 92 0.0 0.0 0.00 0.00 0.00 61 1018.1
20260831194551 91 0.0 0.0 0.00 0.00 0.00 64 1018.3
20260831193045 91 0.0 0.0 0.00 0.00 0.00 62 1018.3
20260831191545 91 0.0 0.0 0.00 0.00 0.00 62 1018.6
20260831190043 90 0.0 0.0 0.00 0.00 0.00 67 1018.6
20260831184544 90 0.0 0.0 0.00 0.00 0.00 65 1018.8
20260831183018 89 0.0 0.0 0.00 0.00 0.00 65 1019.2
20260831181525 88 0.0 0.0 0.00 0.00 0.00 67 1019.3
20260831180108 88 0.0 0.0 0.00 0.00 0.00 67 1019.4
20260831174557 87 0.0 0.0 0.00 0.00 0.00 71 1019.6
20260831173039 87 0.0 0.0 0.00 0.00 0.00 72 1019.7
20260831171539 87 0.0 0.0 0.00 0.00 0.00 76 1019.8
20260831170027 87 0.0 0.0 0.00 0.00 0.00 72 1020.0
20260831164520 87 0.0 0.0 0.00 0.00 0.00 72 1020.1
20260831163002 88 0.0 0.0 0.00 0.00 0.00 71 1020.2
20260831161600 86 0.0 0.0 0.00 0.00 0.00 74 1020.4
20260831154542 87 0.0 0.0 0.00 0.00 0.00 73 1020.5
20260831153038 86 0.0 0.0 0.00 0.00 0.00 78 1020.6
20260831151519 85 0.0 0.0 0.00 0.00 0.00 78 1020.6
20260831150017 84 0.0 0.0 0.00 0.00 0.00 80 1020.5
20260831144502 83 0.0 0.0 0.00 0.00 0.00 83 1020.5
20260831143100 83 0.0 0.0 0.00 0.00 0.00 84 1020.5
20260831141607 81 0.0 0.0 0.00 0.00 0.00 86 1020.5
20260831140053 80 0.0 0.0 0.00 0.00 0.00 88 1020.5
20260831134551 79 0.0 0.0 0.00 0.00 0.00 91 1020.6
20260831133045 77 0.0 0.0 0.00 0.00 0.00 93 1020.6